This is the latest recevied weather packets stored in our database for station/object SR6WVX. If no packets are shown the sender has not sent any weather packets the latest 10 day(s).
| Time | Temp. | Humidity | Pressure | Rain* | Wind** | Luminosity | Snow |
|---|---|---|---|---|---|---|---|
| 1778149186 | 11.67° C | 89% | 1006.7 hPa | 0 mm | - | - | - |
| 1778148885 | 11.11° C | 89% | 1006.8 hPa | 0 mm | - | - | - |
| 1778148585 | 11.11° C | 89% | 1006.8 hPa | 0 mm | - | - | - |
| 1778148285 | 11.11° C | 89% | 1006.9 hPa | 0 mm | - | - | - |
| 1778147985 | 11.11° C | 88% | 1006.6 hPa | 0 mm | - | - | - |
| 1778147685 | 11.67° C | 89% | 1006.6 hPa | 0 mm | - | - | - |
| 1778147384 | 11.67° C | 89% | 1006.7 hPa | 0 mm | - | - | - |
| 1778147084 | 11.67° C | 88% | 1006.6 hPa | 0 mm | - | - | - |
| 1778146784 | 11.67° C | 88% | 1006.6 hPa | 0 mm | - | - | - |
| 1778146483 | 11.67° C | 88% | 1006.5 hPa | 0 mm | - | - | - |
| 1778146183 | 11.67° C | 88% | 1006.3 hPa | 0 mm | - | - | - |
| 1778145883 | 11.67° C | 88% | 1006.3 hPa | 0 mm | - | - | - |
| 1778145582 | 12.22° C | 90% | 1006.1 hPa | 0 mm | - | - | - |
| 1778145282 | 11.67° C | 90% | 1006.1 hPa | 0 mm | - | - | - |
| 1778144982 | 11.67° C | 90% | 1006 hPa | 0 mm | - | - | - |
| 1778144682 | 11.67° C | 92% | 1006 hPa | 0 mm | - | - | - |
| 1778144382 | 11.67° C | 92% | 1005.9 hPa | 0 mm | - | - | - |
| 1778144081 | 11.67° C | 92% | 1005.8 hPa | 0 mm | - | - | - |
| 1778143781 | 11.67° C | 93% | 1005.8 hPa | 0 mm | - | - | - |
| 1778143481 | 11.11° C | 93% | 1005.8 hPa | 0 mm | - | - | - |
| 1778143180 | 11.11° C | 93% | 1005.6 hPa | 0.51 mm | - | - | - |
| 1778142880 | 11.11° C | 93% | 1005.6 hPa | 0.51 mm | - | - | - |
| 1778142580 | 10.56° C | 93% | 1005.5 hPa | 0.51 mm | - | - | - |
| 1778142280 | 10.56° C | 93% | 1005.5 hPa | 0.51 mm | - | - | - |
| 1778141979 | 10.56° C | 93% | 1005.5 hPa | 0.51 mm | - | - | - |
* Rain latest hour (hover to see other rain measurements)
** Current wind speed in m/s (hover to see current wind gust speed)